Location: Unspecified
(0.0000°N, 0.0000°E)
Time: 18:50:51
(UTC+00:00)

S-56A Canister/Altair - Pass Details

Date: 22 November 2019
Orbit: 633 x 2499 km, 38.9° (Epoch: 06 December)

Event Time Altitude Azimuth Distance (km) Brightness Sun altitude
Rises 13:23:15 0° 241° (WSW) 6,138 12.6 58.8°
Reaches altitude 10° 13:27:26 10° 246° (WSW) 5,162 12.4 58.1°
Maximum altitude 13:41:47 51° 316° (NW) 2,756 11.1 55.3°
Drops below altitude 10° 13:53:28 10° 29° (NNE) 4,236 11.1 52.9°
Sets 13:56:35 0° 35° (NE) 4,998 11.3 52.3°
